Voltar ao catálogo

DELTA 1 DEB

AtivoSSO
NORAD 19360·DEBRIS·🇺🇸 United States

Lançado Nov 6, 1973 de Vandenberg Space Force Base

Loading…

Próximas Passagens (próximas 24 horas)

TLE

AtualizadoSource: Space-Track

Época: Sep 14, 2026, 04:00 UTC

1 19360U 73086HE  26257.16678475  .00000922  00000-0  57608-2 0  9990
2 19360 101.8895 336.4981 0043877 308.5668  80.1667 12.57300501891013

Acompanhe DELTA 1 DEB em tempo real com AllMySat

Download on the App Store